Location: Bonham
(33.5773°N, 96.1783°W)
Time: 15:28:05
(UTC+00:00)

Chandra Rocket (1) - Pass Details

Date: 19 November 2025
Orbit: 253 x 10534 km, 28.5° (Epoch: 12 December)

Event Time Altitude Azimuth Distance (km) Brightness Sun altitude
Exits shadow 10:13:54 32° 131° (SE) 1,341 4.0 -34.5°
Drops below altitude 10° 10:19:27 10° 106° (ESE) 3,718 6.8 -33.4°
Sets 10:25:27 0° 102° (ESE) 6,187 8.2 -32.1°
